Miscellaneous Local Product
Issued by NWS Hastings, NE

Home | Current Version | Previous Version | Graphics & Text | Print | Product List | Glossary On
Versions: 1 2 3 4 5 6 7 8 9 10 11 12 13 14 15 16 17 18 19 20 21 22 23 24 25 26 27 28 29 30 31 32 33 34 35 36 37 38 39 40 41 42 43 44 45 46 47 48 49 50
000
AXUS43 KGID 191802
MISGRI

GID CWA HOURLY WEATHER ROUNDUP
NATIONAL WEATHER SERVICE HASTINGS NE
1200 PM CST SUN FEB 19 2017

NOTE: "FAIR" INDICATES FEW OR NO CLOUDS BELOW 12,000 FEET WITH NO
SIGNIFICANT WEATHER AND/OR OBSTRUCTIONS TO VISIBILITY.

...SOUTH CENTRAL NEBRASKA...

CITY           SKY/WX    TMP DP  RH WIND       PRES   REMARKS
GRAND ISLAND   MOSUNNY   63  51  65 S20       29.78F
HASTINGS       MOSUNNY   65  47  52 S17G33    29.80F
KEARNEY        MOSUNNY   63  46  55 S24G30    29.78S
ORD            MOSUNNY   61  45  55 S20G30    29.72F
YORK           MOSUNNY   64  50  59 S21       29.82F
AURORA         CLOUDY    63  51  65 S20       29.80F
LEXINGTON      MOSUNNY   60  47  61 S14G26    29.75F
HOLDREGE       MOSUNNY   60  46  59 S20G25    29.77F
HEBRON         MOSUNNY   64  51  62 S15       29.84F

...NEBRASKA PANHANDLE...

CITY           SKY/WX    TMP DP  RH WIND       PRES   REMARKS
CHADRON        MOSUNNY   63  33  32 W3        29.59S
ALLIANCE       MOSUNNY   51  32  48 S9        29.65S
SCOTTSBLUFF    MOSUNNY   49  31  49 SE7       29.68R
SIDNEY         CLOUDY    57  31  37 CALM      29.68S

...WESTERN AND NORTH CENTRAL NEBRASKA...

CITY           SKY/WX    TMP DP  RH WIND       PRES   REMARKS
VALENTINE      MOSUNNY   57  36  45 SW15      29.63F
AINSWORTH      MOSUNNY   60  43  53 S16G28    29.64F
ONEILL         MOSUNNY   59  46  60 S21       29.71S
BROKEN BOW     MOSUNNY   60  46  59 S24G39    29.69F
IMPERIAL       MOSUNNY   55  37  50 S6        29.71F
NORTH PLATTE   MOSUNNY   62  41  46 SW15      29.71F
MCCOOK         MOSUNNY   59  46  62 S10G21    29.74F

...EASTERN NEBRASKA...

CITY           SKY/WX    TMP DP  RH WIND       PRES   REMARKS
NORFOLK        MOSUNNY   61  49  64 S16G30    29.79F
SO SIOUX CITY  CLOUDY    60  50  69 S17       29.83R
TEKAMAH        MOSUNNY   63  51  65 SE16      29.83
COLUMBUS       MOSUNNY   61  52  72 S17G24    29.82F
ALBION         MOSUNNY   61  49  64 S16G23    29.78F
OMAHA EPPLEY   PTSUNNY   64  50  60 S22G28    29.87F
OFFUTT AFB     MOSUNNY   65  52  64 S14       29.87F
MILLARD        MOSUNNY   67  52  58 S18G25    29.85F
LINCOLN        MOSUNNY   66  50  56 S23       29.85F
NEBRASKA CITY  MOSUNNY   63  46  54 S16       29.89F
BEATRICE       CLOUDY    67  53  60 S21       29.86F
FALLS CITY     MOSUNNY   65  50  58 S10       29.92F

...NORTHERN KANSAS...

CITY           SKY/WX    TMP DP  RH WIND       PRES   REMARKS
GOODLAND       CLOUDY    67  37  33 S24G31    29.71F
HILL CITY      SUNNY     63  48  58 S16G24    29.80F
NORTON         CLEAR     63  43  48 S18       29.77F
PHILLIPSBURG   SUNNY     64  46  52 S14G24    29.81F
SMITH CENTER   SUNNY     64  48  55 S23       29.83S
HAYS           SUNNY     63  49  60 SE16      29.82F
RUSSELL        SUNNY     61  50  67 S15       29.83F
CONCORDIA      SUNNY     60  54  80 S10       29.87S
SALINA         CLOUDY    57  52  83 S18       29.89F HAZE
TOPEKA         MOSUNNY   65  53  65 S13       29.93F



USA.gov is the U.S. government's official web portal to all federal, state and local government web resources and services.